Location: Newark
(38.9311°S, 68.8090°E)
Time: 07:02:08
(UTC+00:00)

LightSail 2 - Pass Details

Date: 26 January 2020
Orbit: 700 x 722 km, 24.0° (Epoch: 18 February)

Event Time Altitude Azimuth Distance (km) Brightness Sun altitude
Exits shadow 23:42:31 - 325° (NW) 2,297 7.2 -8.8°
Reaches altitude 10° 23:42:58 10° 329° (NNW) 2,200 7.1 -8.7°
Maximum altitude 23:45:50 15° 2° (N) 1,884 7.1 -8.3°
Drops below altitude 10° 23:48:42 10° 36° (NE) 2,195 7.7 -7.8°
Sets 23:52:09 0° 59° (ENE) 3,110 8.9 -7.2°
